Wind_Speed
5 8 6 5 2 2 5 9 14 11 6 6 17 14 11 6 2 7 20 16 12 16 15 14 12 11 10 10 9 10 11 11 11 12 13 12 11 12 11 10 10 10 10 11 12 11 11 10 9
8 12 4 4 2 4 7 12 16 13 14 28 23 18 10 5 19 22 27 13 12 15 14 14 13 12 11 11 11 11 11 11 11 12 12 11 11 12 10 9 10 10 10 11 11 11 10 8 7
7 15 6 2 3 3 4 16 16 20 23 11 8 17 9 19 15 16 27 17 12 14 12 13 13 12 12 12 12 11 10 10 9 10 11 11 10 12 10 9 10 9 9 9 8 8 7 8 7
6 5 4 3 7 4 3 18 24 17 17 6 18 10 11 14 18 24 20 13 13 11 11 13 14 11 12 12 12 10 11 10 11 11 11 9 9 11 9 9 9 9 8 7 6 7 5 6 5
27 6 4 3 3 7 7 24 25 12 9 14 14 9 8 17 23 23 20 17 12 10 11 13 12 11 12 11 10 10 10 10 11 11 10 11 11 11 9 9 7 6 5 5 4 5 5 6 6
16 6 3 2 7 9 12 25 13 16 20 17 15 14 8 25 28 23 20 17 10 9 12 12 12 12 11 12 12 12 12 12 11 11 11 12 13 11 10 10 10 8 7 5 5 5 5 6 7
12 2 3 6 10 2 13 25 12 21 16 11 26 6 15 29 28 20 20 18 13 8 12 10 11 12 11 11 11 12 12 13 12 11 12 11 10 9 9 8 8 11 11 9 8 7 6 5 4
15 4 8 6 9 6 8 18 21 20 8 23 18 8 14 35 20 21 18 22 12 10 8 13 14 11 11 11 14 15 16 15 10 10 12 4 4 11 5 6 9 9 10 9 7 6 9 10 8
16 4 1 7 7 13 15 14 21 20 22 12 16 25 41 34 24 24 24 19 15 9 11 15 15 12 11 14 17 17 14 10 5 11 13 8 5 7 9 10 6 9 6 11 8 9 11 10 14
5 4 5 8 6 12 21 23 21 16 21 9 19 23 45 32 28 30 23 22 18 15 12 12 10 11 16 15 12 15 12 10 8 11 15 14 16 13 12 16 10 7 14 14 12 12 17 21 10
11 6 7 14 12 25 20 26 25 24 15 30 35 40 36 29 30 29 23 18 16 17 17 15 8 14 11 11 11 8 7 11 15 11 12 10 11 10 14 14 14 8 14 15 11 11 12 14 12
4 20 18 14 14 20 19 21 14 20 21 30 36 44 36 32 31 27 25 22 20 19 22 15 16 15 11 4 6 7 10 9 12 10 9 8 7 12 10 8 14 15 13 11 11 11 12 9 7
3 2 11 31 22 12 26 17 14 20 26 34 36 39 31 33 29 28 20 20 20 20 22 20 14 15 15 9 10 7 9 10 13 10 9 9 5 8 11 9 7 11 12 15 15 14 13 11 9
8 12 11 20 11 17 20 7 18 22 36 36 35 34 31 31 30 29 24 21 19 24 27 23 16 16 17 13 13 10 11 10 11 14 9 13 16 14 15 13 8 10 10 8 14 13 13 12 9
2 4 9 9 13 19 24 6 4 30 35 36 36 34 31 32 25 31 28 22 26 25 22 17 13 17 19 16 15 14 7 6 5 11 13 8 9 15 16 15 11 10 10 10 6 6 11 10 9
3 4 3 4 9 9 10 3 10 25 36 32 33 32 32 30 26 23 20 27 26 23 19 13 15 21 14 20 17 10 12 9 4 5 11 9 8 11 12 12 10 12 10 14 8 3 8 10 12
2 1 3 11 3 2 4 3 14 20 33 32 34 34 35 31 31 27 24 23 23 21 18 12 16 13 18 22 17 11 14 13 4 2 7 5 10 10 11 12 11 12 10 16 12 8 8 15 19
2 6 1 5 8 13 8 8 7 22 30 29 32 37 37 34 33 29 30 22 21 22 19 18 20 13 16 19 17 13 12 11 8 2 4 4 4 7 7 7 8 7 9 13 12 14 10 14 18
3 7 8 6 18 14 12 9 11 24 22 27 28 37 36 37 33 33 30 30 23 22 21 25 25 17 14 23 20 18 13 11 7 5 6 3 4 3 3 3 6 7 7 14 15 15 10 13 15
12 10 4 6 12 7 19 12 17 18 24 31 30 34 36 36 32 36 34 32 33 28 24 27 24 22 16 21 18 12 10 6 8 8 3 3 3 5 5 3 4 4 7 10 14 16 11 16 14
16 9 10 11 6 14 14 14 15 20 21 27 29 31 36 40 37 40 36 37 36 32 30 32 26 24 20 20 19 12 11 13 10 7 6 2 5 8 4 7 6 3 6 8 12 12 7 6 8
16 14 14 18 8 13 11 4 21 20 18 20 29 30 39 39 42 39 38 34 35 34 32 28 32 28 22 22 20 19 16 14 9 9 5 2 6 7 1 5 13 3 3 6 9 10 10 9 5
17 19 18 18 14 13 13 6 11 22 21 22 26 33 30 40 44 44 46 41 35 34 35 29 32 31 27 24 23 22 20 16 4 7 6 6 4 3 3 6 10 9 3 6 9 9 9 10 7
17 18 17 14 10 9 10 6 5 21 28 20 24 34 38 35 43 44 46 46 40 35 37 32 29 32 29 29 24 21 25 20 13 10 10 7 3 7 7 8 10 14 8 6 10 10 9 10 8
19 12 8 5 5 6 10 5 3 6 17 23 18 33 41 41 40 44 45 47 44 36 40 36 31 30 32 30 28 24 24 23 18 17 16 10 6 5 7 8 11 16 9 9 7 8 8 11 9
16 13 7 7 6 8 5 1 1 12 27 37 43 37 41 44 46 46 51 48 47 45 42 39 34 30 32 32 34 29 24 27 24 20 17 11 8 8 4 9 13 15 11 12 8 7 9 9 10
19 13 11 8 15 5 4 2 5 3 9 18 17 22 35 46 48 45 52 47 43 51 43 41 37 33 31 33 33 33 30 27 25 23 19 15 13 12 9 14 17 14 12 14 8 7 8 9 12
11 11 8 7 11 9 3 5 6 11 15 12 6 20 25 47 46 47 53 50 47 50 47 44 40 35 32 32 33 33 31 29 27 25 22 19 14 15 19 20 19 15 14 13 7 8 8 10 11
15 13 10 4 6 6 4 6 8 12 10 11 12 25 36 48 49 47 52 50 50 49 47 47 43 38 35 31 32 33 33 31 29 26 23 20 17 17 18 18 18 16 15 13 6 8 9 10 11
19 11 13 9 8 5 4 5 4 10 3 4 7 15 45 47 48 48 46 48 51 50 46 45 42 40 37 34 31 33 33 32 30 29 25 23 23 21 21 21 19 16 16 12 5 7 9 10 11
Wind_Direction
156 134 153 293 290 230 151 92 119 125 150 119 91 107 107 65 49 138 137 151 134 133 127 120 119 119 117 115 118 112 109 106 95 95 87 87 85 86 87 86 86 90 97 99 97 96 99 112 106
116 112 70 327 252 117 105 133 127 113 131 103 93 110 71 81 107 123 133 148 140 134 129 127 123 122 122 121 111 111 106 100 94 92 87 79 86 82 79 82 84 93 105 105 102 96 95 91 93
133 77 49 306 290 154 140 118 121 130 128 113 106 91 89 115 110 117 139 143 140 118 127 129 123 123 121 120 114 109 107 102 98 95 93 87 86 84 78 81 85 90 97 100 93 83 80 82 71
180 132 68 259 130 23 146 127 135 144 123 133 116 80 99 124 129 132 127 136 145 132 141 133 131 124 117 122 114 111 102 100 94 95 88 83 80 77 82 79 76 76 81 80 69 64 58 65 58
58 43 95 251 152 143 163 134 152 136 114 135 122 114 89 118 138 142 145 155 140 128 148 141 131 125 118 122 120 107 106 100 98 94 83 77 69 65 63 64 68 73 79 81 78 81 52 38 26
56 5 349 324 136 162 135 129 141 125 136 106 96 106 113 131 144 143 140 159 146 141 149 139 128 125 113 120 113 103 96 93 92 85 79 79 75 65 59 51 43 47 51 47 34 37 43 29 22
89 242 284 320 154 101 138 143 164 135 138 127 134 92 147 150 149 154 161 163 149 121 147 135 121 121 113 119 109 100 91 89 92 102 99 90 89 74 63 51 45 46 43 40 45 45 39 18 31
161 191 333 279 214 104 215 154 164 148 137 148 159 149 173 152 147 153 158 165 154 132 113 122 116 112 111 108 106 101 94 96 105 78 53 33 37 45 49 40 43 50 40 41 45 47 64 68 57
151 84 333 295 152 138 241 142 151 153 144 169 183 156 157 152 145 145 149 149 138 141 120 129 112 107 101 111 106 101 94 81 65 70 39 67 64 63 62 61 41 37 32 55 41 27 40 50 57
177 139 198 239 120 150 167 140 156 132 160 146 107 144 151 150 155 156 145 148 156 151 142 123 124 110 112 116 105 95 97 78 65 43 61 65 54 58 52 52 48 46 50 52 36 48 60 56 87
240 147 173 274 159 162 177 151 140 146 141 140 137 144 152 153 165 162 157 160 153 146 148 160 143 142 124 97 93 87 72 75 71 49 65 65 64 66 63 59 57 49 46 48 43 36 46 66 51
348 146 199 235 140 145 109 115 110 132 143 152 149 156 152 162 159 169 175 172 160 158 154 156 133 141 181 153 128 108 80 127 84 87 80 59 67 59 79 66 42 49 41 38 19 39 37 25 0
49 44 220 115 113 131 107 117 124 133 133 140 147 150 158 164 170 174 164 163 172 171 160 154 154 149 159 165 170 139 106 77 52 59 108 60 78 92 79 83 71 69 61 51 46 38 22 8 19
312 357 304 120 124 133 96 74 128 153 138 141 150 162 164 168 175 170 176 159 172 164 169 169 181 171 175 142 146 143 102 82 56 63 79 72 88 95 78 75 55 43 31 25 25 25 36 27 29
17 360 348 116 146 113 105 70 80 147 142 150 160 169 169 177 182 178 181 184 170 176 176 185 199 191 173 157 141 129 118 122 50 52 79 92 59 70 69 63 79 67 44 34 16 19 28 25 11
297 82 54 310 104 154 119 204 234 162 149 157 162 167 174 177 178 181 183 174 176 177 184 194 180 165 164 154 145 132 143 142 164 40 69 72 58 77 64 64 57 49 39 16 23 354 34 23 17
31 103 310 293 204 13 104 203 241 180 158 162 170 170 175 183 180 187 183 171 176 185 186 192 160 161 158 155 138 136 138 123 126 46 54 66 87 111 72 66 54 27 3 5 22 41 27 24 16
153 126 34 271 317 339 261 222 235 208 164 172 175 174 177 183 181 188 188 178 184 192 188 170 176 179 164 166 153 147 139 128 138 153 349 9 88 83 76 54 41 10 351 11 40 31 34 24 19
142 123 148 206 287 312 281 233 211 189 172 170 187 175 177 178 188 187 186 180 185 179 181 168 184 195 183 169 157 149 147 133 154 230 298 305 88 93 77 46 41 350 357 13 18 27 28 42 20
272 134 218 296 257 253 273 263 186 192 186 178 189 177 175 175 180 188 186 189 193 190 190 174 185 195 192 172 155 157 168 224 196 225 269 304 25 32 41 200 359 47 11 11 5 21 61 60 31
264 160 170 212 112 304 307 292 189 208 182 181 192 183 179 181 178 182 186 189 188 191 194 187 190 194 193 170 166 190 195 195 189 219 286 159 33 24 50 26 32 30 31 357 357 5 27 39 46
257 198 200 235 168 227 149 228 193 187 186 178 186 201 184 184 187 182 186 184 189 194 200 200 198 203 193 181 186 194 198 193 207 211 224 278 358 33 24 344 12 36 2 350 356 1 15 10 23
245 260 232 236 206 256 240 212 213 176 186 181 179 193 195 188 190 189 191 191 193 199 201 205 203 205 200 193 192 199 200 198 175 198 208 281 320 351 327 326 354 12 332 349 338 353 5 14 13
252 247 260 268 250 233 253 191 203 180 192 171 181 188 197 192 191 189 197 193 191 201 204 204 205 210 203 197 195 196 200 188 187 204 225 240 261 293 262 290 327 340 328 318 327 342 3 11 22
242 248 253 289 281 219 245 278 319 122 152 143 177 200 193 194 184 188 189 193 194 194 204 204 207 208 210 200 197 199 192 188 194 207 222 228 223 289 271 287 310 323 319 320 327 331 359 1 14
242 228 208 227 232 243 70 211 223 139 145 166 180 182 194 190 192 187 189 194 195 196 202 206 208 211 211 208 200 203 201 196 200 205 217 208 202 258 280 283 301 316 310 321 304 325 347 347 355
238 243 220 221 258 280 124 350 4 204 166 202 215 203 187 192 190 191 189 197 196 197 203 208 211 214 213 212 209 209 212 210 211 217 225 234 224 237 275 290 289 299 301 314 294 316 332 336 338
223 222 246 233 237 252 209 188 197 195 187 226 227 246 222 189 188 188 189 195 197 196 201 207 215 217 217 214 216 214 214 218 220 221 227 227 227 230 241 253 273 292 295 305 273 283 316 327 330
237 239 229 215 177 215 175 253 206 189 226 179 213 248 208 182 185 183 188 193 198 194 198 205 210 214 218 219 217 218 221 221 222 224 225 228 226 232 240 253 269 277 283 289 268 275 300 315 320
233 226 214 222 273 236 205 256 121 146 205 267 134 38 192 184 181 182 181 182 185 189 192 199 205 212 219 221 220 221 222 223 222 221 222 227 234 237 246 255 261 263 273 276 265 251 280 301 308
Height
1508 1510 1510 1509 1510 1510 1507 1504 1497 1508 1512 1509 1507 1510 1517 1521 1522 1540 1534 1536 1537 1538 1540 1542 1543 1545 1547 1547 1548 1549 1550 1550 1551 1551 1552 1552 1553 1553 1553 1553 1553 1553 1553 1554 1555 1556 1558 1558 1558
1509 1508 1508 1507 1514 1513 1511 1499 1504 1503 1507 1509 1512 1516 1519 1526 1525 1530 1534 1536 1538 1539 1541 1542 1544 1546 1548 1549 1550 1551 1552 1552 1553 1554 1554 1555 1556 1555 1556 1555 1555 1555 1555 1556 1557 1558 1558 1560 1561
1509 1510 1506 1511 1511 1513 1514 1497 1500 1504 1506 1509 1513 1518 1523 1529 1530 1532 1535 1537 1538 1540 1542 1544 1545 1547 1549 1551 1552 1553 1553 1554 1555 1555 1556 1557 1557 1556 1557 1557 1557 1557 1558 1558 1559 1560 1560 1561 1563
1507 1512 1512 1514 1502 1503 1500 1499 1501 1502 1505 1511 1514 1521 1526 1528 1531 1535 1537 1538 1538 1541 1544 1545 1547 1548 1550 1552 1553 1554 1555 1555 1556 1556 1557 1558 1559 1558 1558 1558 1558 1559 1560 1561 1561 1561 1562 1562 1563
1499 1509 1514 1517 1502 1496 1496 1498 1500 1503 1505 1511 1513 1521 1526 1530 1533 1537 1539 1538 1541 1543 1544 1546 1548 1550 1551 1553 1555 1555 1555 1557 1558 1558 1558 1558 1560 1561 1561 1560 1560 1560 1560 1560 1561 1561 1562 1562 1563
1506 1516 1519 1521 1500 1495 1494 1493 1500 1501 1505 1512 1518 1521 1529 1532 1536 1538 1540 1539 1542 1544 1545 1547 1549 1551 1552 1554 1556 1556 1557 1558 1558 1559 1559 1560 1561 1563 1564 1562 1562 1561 1561 1561 1561 1562 1563 1562 1562
1518 1521 1518 1512 1500 1506 1496 1495 1499 1500 1506 1511 1515 1524 1531 1533 1537 1539 1541 1541 1544 1545 1546 1549 1551 1553 1554 1556 1557 1559 1559 1560 1559 1558 1560 1561 1561 1561 1563 1564 1563 1561 1561 1560 1560 1561 1561 1562 1562
1503 1510 1512 1499 1506 1506 1502 1494 1496 1501 1506 1510 1512 1521 1527 1530 1536 1538 1541 1542 1545 1546 1548 1550 1553 1554 1556 1558 1559 1560 1560 1561 1560 1565 1572 1569 1562 1561 1562 1564 1562 1562 1561 1560 1560 1560 1561 1562 1564
1498 1510 1518 1505 1489 1494 1493 1493 1498 1502 1507 1509 1510 1511 1520 1527 1534 1538 1540 1543 1545 1547 1549 1552 1554 1556 1558 1560 1562 1562 1563 1562 1563 1570 1570 1566 1567 1563 1565 1564 1563 1563 1562 1561 1561 1561 1562 1564 1564
1496 1499 1502 1484 1482 1488 1486 1489 1496 1501 1508 1509 1513 1514 1523 1528 1533 1535 1539 1542 1545 1547 1550 1553 1555 1557 1560 1562 1564 1564 1565 1563 1565 1567 1571 1572 1569 1568 1565 1564 1566 1566 1563 1562 1560 1562 1562 1560 1561
1484 1497 1491 1477 1483 1484 1483 1490 1496 1499 1505 1506 1511 1518 1523 1527 1533 1536 1540 1542 1543 1547 1550 1555 1556 1559 1561 1564 1564 1564 1567 1568 1568 1570 1570 1569 1567 1568 1568 1568 1569 1567 1564 1562 1562 1562 1562 1562 1561
1479 1476 1477 1473 1479 1483 1486 1491 1497 1498 1501 1504 1508 1515 1523 1527 1531 1536 1539 1541 1542 1546 1550 1555 1558 1560 1562 1566 1565 1566 1570 1570 1570 1571 1571 1571 1571 1570 1568 1568 1571 1568 1565 1563 1561 1561 1562 1562 1561
1473 1480 1480 1474 1477 1480 1487 1493 1494 1501 1503 1505 1512 1519 1524 1529 1532 1536 1538 1539 1542 1546 1551 1556 1558 1562 1564 1566 1566 1570 1571 1572 1572 1572 1571 1571 1570 1569 1569 1569 1570 1570 1567 1565 1564 1563 1562 1560 1560
1474 1476 1483 1473 1476 1480 1488 1495 1492 1503 1502 1508 1514 1520 1525 1528 1531 1535 1537 1539 1542 1546 1550 1555 1557 1561 1564 1566 1568 1569 1572 1573 1574 1574 1573 1573 1570 1571 1570 1569 1571 1570 1569 1567 1565 1563 1561 1561 1560
1477 1481 1480 1478 1477 1483 1482 1494 1497 1501 1502 1508 1514 1518 1523 1527 1530 1532 1536 1540 1542 1545 1550 1554 1557 1560 1564 1566 1568 1570 1572 1573 1574 1575 1574 1572 1570 1570 1571 1571 1572 1571 1570 1568 1566 1565 1563 1562 1561
1478 1485 1498 1482 1477 1482 1480 1509 1492 1493 1497 1505 1511 1517 1521 1525 1529 1531 1536 1540 1542 1544 1548 1553 1556 1559 1563 1565 1568 1569 1573 1575 1574 1575 1576 1575 1573 1574 1574 1574 1573 1571 1570 1568 1565 1564 1563 1562 1561
1481 1499 1501 1490 1477 1481 1484 1502 1490 1491 1493 1498 1505 1511 1517 1521 1527 1530 1535 1538 1540 1543 1548 1552 1556 1560 1562 1565 1567 1568 1571 1575 1574 1575 1576 1575 1576 1575 1575 1575 1573 1572 1570 1569 1566 1565 1563 1561 1560
1498 1500 1508 1506 1483 1483 1489 1490 1487 1486 1490 1496 1501 1505 1511 1516 1520 1527 1533 1537 1539 1543 1548 1551 1556 1559 1563 1565 1567 1568 1571 1574 1574 1575 1576 1576 1575 1574 1574 1574 1573 1572 1570 1570 1567 1565 1564 1562 1560
1482 1488 1496 1489 1483 1491 1491 1486 1484 1481 1487 1491 1497 1499 1505 1511 1517 1524 1531 1535 1538 1542 1547 1551 1554 1558 1562 1565 1566 1567 1570 1573 1575 1575 1575 1575 1575 1574 1573 1573 1572 1571 1571 1569 1567 1566 1564 1563 1560
1476 1491 1499 1479 1476 1491 1479 1478 1477 1476 1475 1482 1492 1497 1500 1508 1514 1520 1527 1531 1535 1538 1545 1550 1553 1556 1560 1564 1567 1568 1569 1572 1574 1574 1575 1574 1574 1574 1573 1573 1573 1572 1570 1568 1567 1564 1563 1562 1560
1472 1484 1485 1489 1480 1486 1481 1486 1487 1476 1479 1485 1490 1496 1502 1503 1509 1515 1522 1526 1532 1535 1541 1547 1550 1554 1558 1562 1565 1567 1570 1571 1573 1574 1575 1574 1574 1574 1573 1573 1572 1571 1570 1568 1567 1565 1564 1562 1561
1478 1461 1457 1462 1486 1504 1466 1504 1477 1473 1476 1482 1488 1492 1496 1501 1506 1513 1518 1522 1527 1531 1537 1544 1548 1552 1556 1560 1563 1565 1568 1571 1573 1574 1574 1574 1575 1574 1573 1573 1572 1571 1569 1568 1566 1565 1563 1562 1561
1462 1448 1454 1456 1468 1470 1460 1481 1461 1463 1476 1474 1480 1489 1493 1497 1501 1507 1512 1518 1524 1529 1533 1539 1544 1548 1553 1557 1560 1563 1566 1570 1571 1571 1572 1573 1574 1574 1573 1573 1573 1571 1569 1568 1567 1566 1565 1563 1562
1445 1449 1449 1452 1460 1485 1465 1467 1464 1462 1456 1470 1477 1484 1488 1493 1498 1503 1509 1515 1521 1524 1530 1535 1539 1543 1549 1554 1557 1560 1564 1567 1569 1570 1571 1572 1573 1572 1572 1571 1571 1570 1569 1568 1566 1565 1564 1563 1563
1442 1458 1486 1497 1489 1496 1450 1462 1469 1442 1450 1457 1468 1478 1481 1485 1491 1499 1504 1509 1515 1520 1524 1530 1535 1539 1544 1550 1553 1556 1560 1564 1566 1567 1569 1570 1571 1570 1570 1570 1570 1569 1568 1567 1566 1564 1564 1563 1562
1442 1451 1479 1508 1501 1480 1446 1477 1458 1441 1453 1455 1452 1454 1472 1475 1481 1489 1495 1501 1508 1516 1519 1524 1529 1534 1540 1545 1549 1553 1557 1561 1562 1565 1566 1568 1569 1568 1569 1570 1569 1568 1567 1566 1565 1563 1562 1562 1561
1437 1449 1439 1465 1454 1471 1470 1464 1451 1447 1445 1443 1445 1451 1455 1465 1471 1480 1487 1494 1501 1509 1513 1517 1523 1529 1535 1540 1545 1549 1552 1556 1560 1562 1563 1565 1567 1568 1568 1567 1566 1566 1565 1564 1563 1562 1562 1561 1559
1424 1425 1455 1449 1483 1492 1472 1470 1464 1447 1451 1448 1443 1450 1450 1456 1464 1472 1479 1487 1494 1502 1509 1514 1518 1524 1530 1535 1539 1544 1548 1552 1555 1558 1560 1562 1564 1566 1566 1564 1563 1562 1562 1561 1561 1560 1560 1560 1558
1424 1430 1430 1437 1452 1477 1491 1477 1427 1431 1430 1440 1441 1431 1442 1445 1453 1462 1471 1479 1487 1497 1503 1508 1513 1519 1524 1529 1534 1539 1542 1547 1551 1553 1556 1558 1560 1560 1560 1561 1560 1560 1559 1558 1558 1558 1558 1557 1557
1408 1419 1422 1447 1460 1448 1456 1460 1415 1417 1423 1421 1432 1427 1431 1437 1444 1455 1464 1473 1481 1490 1497 1502 1507 1512 1518 1524 1529 1533 1537 1541 1545 1548 1551 1554 1554 1556 1557 1557 1557 1556 1556 1555 1556 1556 1556 1555 1554